Dewpoint
26 22 21 24 22 20 24 28 26 27 23 22 24 32 35 32 30 29 29 30 33 40 48 51 54 55 55 58 59 58 58 57 57 56 55 54 53 53 51 51 50 47 43 41
29 25 21 21 20 21 20 20 19 20 22 24 24 32 32 31 24 28 28 28 31 37 48 51 54 54 56 56 56 56 55 54 55 55 53 54 53 52 49 46 42 40 39 39
29 28 26 25 24 20 22 20 19 19 23 23 22 25 30 28 25 26 30 36 40 42 49 52 53 55 54 54 54 53 50 49 51 50 49 47 44 42 41 40 40 39 39 40
32 35 24 24 24 22 21 19 20 20 20 21 22 23 27 30 33 34 37 40 44 48 51 51 52 51 51 50 48 47 46 45 45 44 42 40 39 38 39 39 39 40 39 39
33 29 26 21 23 25 24 23 24 22 21 21 21 26 34 34 39 40 42 44 46 47 48 48 47 46 45 44 44 43 43 42 42 41 39 39 39 39 39 39 39 39 38 39
37 29 27 31 27 26 25 24 27 25 26 26 27 36 33 36 40 41 42 43 43 44 44 43 43 43 42 40 40 40 40 40 40 40 40 40 41 42 41 41 40 39 40 40
36 33 33 30 28 26 25 30 33 32 31 31 35 36 38 39 40 40 40 40 41 41 40 40 40 40 39 39 39 39 40 39 40 40 40 40 40 40 40 39 39 38 37 35
37 34 31 34 32 27 35 35 38 35 36 42 40 41 39 39 39 39 38 38 39 39 39 39 39 39 38 37 38 39 39 39 40 40 39 38 39 36 35 34 34 33 33 33
37 37 40 41 36 37 39 39 39 38 37 39 40 40 39 38 38 37 37 37 37 38 39 39 39 38 37 38 39 39 39 38 37 33 31 30 31 31 31 32 31 29 29 30
36 34 35 40 40 39 37 40 38 35 37 40 40 40 39 38 37 37 36 36 37 38 38 38 38 38 39 38 37 37 33 30 29 28 27 27 22 24 28 28 28 28 28 27
35 34 32 33 36 40 40 40 39 37 38 38 39 39 38 37 37 36 35 37 37 38 38 37 37 37 36 35 32 31 30 28 27 27 24 23 21 24 25 22 25 26 25 25
35 35 42 40 41 41 41 39 38 40 39 37 37 40 38 38 37 36 36 37 37 38 37 35 35 33 31 31 30 28 26 26 29 28 25 22 22 21 26 23 22 21 20 22
38 40 40 43 40 39 39 40 40 40 40 37 39 39 38 38 38 37 37 37 36 35 33 31 30 29 29 30 29 27 26 25 26 27 26 24 25 25 22 22 22 21 20 19
41 42 39 42 40 40 40 40 41 40 39 39 39 38 39 39 38 37 36 36 35 33 31 28 26 24 24 23 23 22 22 27 24 24 24 26 24 24 25 25 23 23 20 17
40 40 39 39 39 38 38 38 39 39 39 39 41 40 39 37 36 36 35 33 31 28 25 23 20 19 20 20 19 22 23 23 26 24 23 23 24 24 22 22 22 21 22 19
39 39 39 39 38 38 37 37 37 39 39 40 39 39 37 36 34 31 30 28 26 23 21 22 17 19 20 18 19 20 22 23 24 23 22 21 22 21 20 20 20 21 20 20
39 38 39 39 39 37 37 37 38 38 39 37 35 31 27 26 24 24 23 23 24 24 24 23 18 17 21 22 24 24 22 20 19 21 18 18 19 20 18 19 19 18 19 14
37 36 36 37 37 37 35 35 33 33 31 29 28 26 25 24 23 23 23 23 22 22 23 24 24 22 22 22 21 18 19 18 18 17 17 19 16 16 17 17 16 16 17 16
31 31 31 32 32 32 31 30 30 29 28 27 24 24 24 24 23 22 23 21 20 18 20 22 22 20 18 18 17 18 19 19 15 14 15 14 17 17 17 17 15 15 14 15
28 28 28 28 29 29 28 28 28 27 27 26 24 23 22 23 24 23 22 20 21 20 21 21 19 16 15 15 15 16 17 17 13 15 17 13 16 16 15 14 14 14 14 14
26 27 26 26 26 26 26 26 25 24 25 25 24 22 22 23 23 22 19 17 20 21 21 21 18 14 10 10 10 19 18 17 17 16 16 16 15 15 15 14 14 13 12 13
27 26 25 25 25 25 26 26 25 25 24 24 24 24 22 22 21 21 21 18 20 22 20 17 13 13 12 16 17 18 16 16 15 15 15 14 14 13 12 12 11 11 11 8
26 26 25 24 23 24 24 24 24 24 23 23 22 22 22 22 24 20 17 21 22 22 18 16 14 13 12 17 17 17 16 14 14 14 13 13 13 12 10 10 9 8 7 8
26 26 26 26 25 23 22 24 24 24 24 23 23 23 24 21 21 21 21 20 19 18 16 16 13 11 9 17 16 15 13 13 12 13 13 9 12 11 11 8 7 7 6 5
23 23 23 23 23 23 23 24 24 23 22 21 21 20 19 21 21 21 20 18 16 19 14 11 10 10 14 15 14 12 12 12 12 9 9 9 8 8 8 7 7 5 4 -0
19 17 17 17 17 18 19 19 17 17 22 19 20 21 21 21 21 19 17 17 15 14 15 16 14 13 13 11 9 9 10 11 10 10 9 7 6 5 5 5 5 4 3 2
14 15 13 13 15 15 16 14 16 16 15 18 18 18 18 19 18 16 16 15 15 15 13 13 13 11 12 10 10 9 8 8 8 8 6 5 4 4 4 3 3 1 -1 -2
Lifted_Index
-1 -1 -1 -1 -0 -0 -0 -0 -1 -1 -1 -0 -0 -1 -0 -0 -0 0 1 1 1 -1 -3 -4 -4 -5 -5 -5 -5 -5 -4 -4 -4 -4 -3 -3 -3 -2 -1 -0 1 2 2 3
-1 -1 -1 -0 -0 -0 -0 -0 -0 -1 -1 -1 -1 -1 -0 -0 0 1 1 1 0 -1 -3 -4 -4 -4 -4 -4 -4 -4 -4 -4 -3 -3 -2 -1 -1 -0 0 1 2 3 3 4
-1 -1 -1 0 0 0 0 0 -0 -0 -1 -1 -1 -1 -1 -0 0 1 1 0 -0 -2 -3 -3 -3 -4 -3 -3 -3 -3 -3 -2 -2 -1 0 1 2 2 2 3 3 4 6 6
-1 -1 -0 1 1 0 0 0 0 -0 -0 -1 -1 -1 -1 -0 0 1 0 0 -1 -2 -2 -2 -2 -2 -2 -1 -1 -1 -1 0 1 2 3 4 4 4 4 4 5 6 8 9
-1 -1 0 1 1 1 1 1 0 -0 -0 -1 -1 -1 -1 0 1 0 0 0 0 -0 -1 -1 -0 0 1 1 2 2 2 3 4 5 5 5 5 5 6 6 7 8 9 10
-0 -0 0 1 1 1 0 0 -0 -0 -1 -1 -1 -1 -0 1 1 1 1 1 2 2 1 1 2 3 3 4 4 4 5 5 6 6 6 6 7 7 8 9 10 11 11 12
-0 -0 0 0 0 -0 -0 -0 -1 -1 -1 -1 -1 -0 1 1 1 2 2 3 3 3 3 4 4 5 5 5 5 5 6 6 7 7 8 8 9 10 11 11 12 13 13 13
-0 -0 -0 -0 -1 -1 -1 -1 -2 -2 -2 -1 -1 0 1 2 2 2 3 4 4 4 4 5 5 5 5 5 6 6 6 7 7 8 10 11 12 12 13 13 14 14 14 14
0 0 0 -0 -1 -1 -2 -2 -3 -2 -2 -2 -1 0 1 2 2 3 4 4 5 5 5 5 6 6 6 6 6 6 7 7 9 10 12 13 14 15 15 15 15 15 15 16
1 1 1 1 -0 -1 -2 -2 -3 -3 -2 -2 -1 0 1 2 3 3 4 4 5 5 5 5 6 6 6 7 7 7 8 8 10 12 13 15 16 16 16 16 16 16 16 17
1 1 1 1 0 -1 -1 -2 -2 -2 -2 -1 -1 0 1 2 3 4 4 5 5 5 5 6 6 7 8 9 9 9 9 10 11 13 15 16 16 16 17 17 17 18 18 18
0 -0 -0 -0 0 -0 -1 -1 -1 -1 -1 -1 -0 0 1 2 3 4 5 5 5 5 6 6 7 8 10 11 11 11 10 11 13 15 16 17 17 17 17 18 19 19 20 20
-1 -1 -1 -0 0 0 0 0 -0 -1 -0 0 0 1 2 3 4 4 5 6 6 6 7 8 9 10 12 13 13 13 12 13 15 16 17 17 17 17 17 18 19 20 20 20
-0 -0 -0 0 1 1 1 1 0 0 0 1 1 1 2 3 4 5 5 6 7 8 9 10 10 12 14 15 15 15 15 16 17 17 17 17 17 18 18 18 19 19 20 21
0 0 0 0 0 1 1 1 1 1 1 1 2 2 3 4 4 5 7 8 9 10 11 12 12 14 16 17 17 17 17 18 18 18 18 18 18 19 19 19 19 20 20 21
-0 -0 -0 -0 0 0 0 0 1 1 1 2 2 3 4 4 5 6 8 9 10 11 13 14 15 17 19 19 18 18 18 18 18 18 18 19 19 20 20 19 19 20 20 20
0 0 0 0 0 0 0 0 1 1 2 3 3 4 4 5 6 7 9 11 12 14 15 16 18 19 19 19 18 18 18 19 19 19 19 19 20 20 20 20 19 19 19 19
2 2 2 1 1 1 1 1 2 3 4 4 5 5 5 6 7 9 11 13 14 15 17 18 18 19 19 19 19 19 19 19 20 20 20 20 20 20 20 20 19 19 19 20
4 4 3 3 3 3 2 3 5 6 7 7 7 8 8 9 10 11 13 15 15 16 17 18 18 18 19 20 20 20 20 20 20 20 20 20 20 20 20 20 20 19 19 19
6 6 6 6 6 6 6 7 9 10 11 11 11 11 11 12 13 14 15 16 16 17 18 19 19 19 20 20 21 20 20 20 19 19 19 20 20 20 20 20 20 20 19 19
9 9 9 9 9 10 11 12 12 13 13 14 14 14 14 15 16 16 16 17 18 19 19 19 20 20 21 21 21 21 20 20 20 20 20 20 20 20 21 21 20 20 20 19
11 11 12 12 12 13 14 14 15 15 15 15 16 16 16 16 17 17 17 18 19 20 20 20 21 21 22 22 22 21 21 21 21 21 21 21 21 21 21 21 21 20 20 20
13 13 13 14 14 14 15 15 16 16 16 17 17 17 17 17 18 18 18 19 20 21 21 21 22 22 22 23 22 22 22 22 22 23 23 23 23 22 22 22 21 21 21 21
14 14 14 15 15 15 15 16 17 17 17 17 18 18 18 18 19 19 20 21 22 22 22 22 23 23 23 24 24 24 24 24 24 24 24 24 23 23 23 22 22 22 22 22
14 15 15 15 15 15 16 17 17 17 17 18 18 19 19 20 20 21 21 22 23 23 23 24 24 24 24 25 25 24 24 24 24 24 24 24 23 23 23 23 23 23 23 22
15 15 15 16 16 16 17 17 17 18 18 18 19 20 21 22 22 22 23 23 24 24 24 24 25 25 25 25 24 24 24 24 24 24 24 24 24 24 24 24 23 23 23 22
16 16 16 16 17 17 18 18 17 18 19 19 20 21 22 23 23 23 24 24 24 24 24 24 24 24 24 24 24 24 24 23 23 24 24 24 24 24 24 24 24 23 22 22